Lid_Strength_Index
3 0 2 4 10 11 13 12 8 9 8 6 6 6 7 6 8 11 2 0 -0 -0 -1 -1 -1 -2 -2 -2 -2 -2 -2 -2 -2 -2 -2 -2 -2 -2 -2 -2 -2 -2 -2 -2 -2 -2 -2 -2 -2
2 3 3 7 12 15 13 9 10 8 7 5 6 6 7 8 5 4 3 0 -0 -0 -1 -1 -1 -2 -2 -2 -2 -2 -2 -2 -2 -2 -2 -2 -2 -2 -2 -2 -2 -2 -2 -2 -2 -2 -2 -2 -2
4 3 6 9 12 15 13 9 8 7 6 6 7 5 6 8 4 3 1 0 -0 -0 -1 -1 -1 -2 -2 -1 -1 -2 -2 -2 -2 -2 -2 -2 -2 -2 -2 -2 -2 -2 -2 -2 -2 -2 -2 -2 -2
6 7 8 11 14 11 10 8 7 7 7 5 6 8 5 3 3 2 0 -0 0 -0 -1 -0 -1 -2 -2 -1 -2 -2 -2 -2 -2 -2 -2 -2 -2 -2 -2 -2 -2 -2 -2 -2 -2 -2 -2 -2 -2
6 8 11 13 12 10 8 8 7 8 7 7 6 9 7 3 1 1 1 0 0 -0 -1 -1 -1 -1 -1 -1 -2 -2 -2 -2 -2 -2 -2 -2 -2 -2 -2 -2 -3 -2 -2 -2 -2 -2 -2 -2 -2
8 9 13 14 12 10 9 7 7 7 7 7 7 8 7 2 2 1 0 0 -0 0 -1 -1 1 -0 -1 -1 -1 -1 -2 -2 -2 -2 -2 -2 -2 -2 -2 -2 -3 -2 -2 -2 -2 -2 -2 -2 -1
8 11 12 12 11 10 9 7 7 7 7 7 5 9 6 4 2 1 0 0 -0 -0 -0 -1 -1 -0 1 0 -0 -1 -1 -1 -2 -2 -2 -2 -2 -2 -3 -2 -2 -2 -2 -2 -2 -2 -2 -1 -1
8 10 12 12 12 11 8 9 7 7 7 4 4 9 8 4 1 1 1 0 0 0 0 -0 -1 -1 -1 -1 1 0 -0 -1 -1 -1 -1 -0 -0 -1 -1 -1 -2 -2 -2 -2 -2 -2 -1 -1 -1
7 11 13 11 11 10 10 9 8 7 6 6 5 5 4 2 1 2 2 2 1 1 0 0 -0 -1 -1 -1 1 1 1 0 0 -0 1 0 -1 -1 -1 -0 -2 -2 -2 -2 -1 0 0 1 1
8 12 11 9 9 9 11 10 9 7 7 7 6 4 3 3 3 3 4 3 2 2 1 1 -0 -0 -1 -1 -0 -1 -1 -1 -1 -1 -1 -1 -1 -1 -1 -0 -0 -1 -1 -1 -0 -0 1 2 1
8 12 10 9 8 9 11 10 10 7 9 7 7 6 4 4 4 4 3 3 2 1 1 0 1 0 -1 -0 -0 -0 -1 -1 -1 -1 -0 -0 -0 -1 -1 -1 -1 -1 1 -1 -0 0 1 1 1
10 8 8 8 8 8 10 10 10 9 7 9 5 4 4 4 4 4 4 3 2 2 1 1 0 0 -0 -0 -0 -0 -0 -1 -0 -0 0 1 1 1 0 -0 -1 -0 -0 0 -0 1 1 2 2
10 9 8 7 8 8 9 10 11 10 9 6 4 4 5 4 4 3 3 3 2 2 2 1 0 1 0 0 1 0 -0 -1 -0 -0 0 1 1 1 1 1 0 0 1 1 1 2 2 2 2
8 8 8 7 8 8 9 10 10 9 6 6 5 5 5 4 4 3 3 3 2 2 2 1 1 0 0 -0 1 0 -0 -1 -0 -1 -0 0 1 1 1 2 1 1 1 1 1 2 2 2 2
8 10 9 9 8 9 8 11 12 10 6 7 6 5 5 4 4 4 3 3 2 2 2 1 0 -0 -0 -0 1 0 -0 -1 -1 -0 -0 0 1 1 1 1 2 1 1 1 1 2 2 2 2
10 10 14 10 9 8 10 13 9 9 9 7 7 6 5 5 4 3 3 3 2 3 2 1 1 1 0 -0 -0 -0 -0 -0 -1 -1 -0 0 1 1 1 1 1 1 1 1 1 1 2 2 1
12 16 14 13 8 10 11 12 10 9 10 10 7 6 6 5 4 3 3 3 2 2 2 2 1 1 1 0 -0 -0 -0 -0 -1 -1 -0 -0 1 1 1 1 1 1 1 1 1 1 1 1 1
16 16 14 14 12 10 12 12 10 10 10 11 10 11 9 7 6 3 3 3 3 2 2 1 1 1 1 1 0 0 -0 -0 -1 -0 -0 -0 0 1 1 1 1 1 1 1 1 0 -0 0 0
12 13 14 12 12 13 14 13 11 10 11 12 10 11 10 8 9 8 6 4 2 3 3 2 2 1 1 2 1 2 1 1 0 -0 -0 -0 -0 0 1 1 1 1 1 1 1 1 1 1 0
12 14 14 12 11 13 15 14 12 11 12 11 11 10 11 12 10 10 10 9 7 3 3 2 2 1 1 0 0 1 1 0 -0 -0 -0 -0 0 0 1 1 1 1 1 1 1 1 1 1 1
13 14 14 14 13 13 15 16 14 12 13 12 12 12 13 13 11 12 12 12 11 11 9 7 5 2 1 1 1 1 1 0 1 0 0 0 0 0 1 1 1 1 1 1 1 1 1 2 1
15 12 12 14 15 17 15 19 17 13 12 13 13 13 13 13 13 13 13 13 13 12 12 11 8 3 1 1 1 1 2 2 1 1 0 0 -0 0 1 1 1 1 1 1 1 1 1 1 2
13 11 13 13 16 18 17 19 18 15 13 15 13 13 14 14 14 15 15 14 14 13 13 13 9 8 7 4 2 1 2 1 1 1 1 1 1 0 0 0 1 1 1 1 1 1 1 1 1
11 12 13 14 16 20 18 19 19 18 15 15 13 14 14 15 15 15 15 15 15 14 14 13 12 11 10 8 7 6 4 2 2 2 2 1 1 1 4 2 1 1 1 1 1 1 1 2 1
11 14 19 21 22 22 19 20 19 15 15 14 13 15 15 15 16 16 16 16 15 15 15 13 13 14 12 11 10 10 8 6 5 4 3 2 3 6 7 6 6 6 6 6 5 4 6 5 4
13 14 19 25 24 21 18 20 18 14 14 15 15 15 15 16 16 17 17 17 16 16 16 15 14 14 13 12 12 11 10 9 9 9 8 8 9 9 8 7 7 7 7 6 6 6 7 7 8
12 15 14 19 23 21 19 18 15 14 15 15 16 16 16 17 17 17 17 18 18 17 17 16 15 14 14 13 11 12 12 12 12 11 10 10 9 9 10 9 9 9 9 9 9 10 11 11 11
11 11 16 18 24 24 20 19 18 16 15 15 16 17 17 17 18 18 18 18 18 18 17 17 16 16 15 13 12 12 12 12 12 12 13 12 12 11 10 10 11 11 11 10 11 12 12 12 12
13 15 15 15 17 22 22 20 14 14 14 14 15 16 16 17 18 18 18 18 18 18 18 17 17 17 16 15 14 14 14 13 13 13 13 14 13 13 13 12 13 13 13 13 13 14 14 15 15
11 13 14 17 19 19 18 18 12 12 13 13 13 14 16 17 18 19 18 18 19 18 18 18 18 17 16 16 15 15 15 15 15 15 15 15 15 15 15 15 15 15 15 15 16 16 16 16 17